CARTOSAT-3

Last updated on Mon Sep 21 2026 00:02:46 GMT+0000 (Coordinated Universal Time)

1 44804U 19081A 26263.59374558 .00001972 00000+0 96685-4 0 9990 2 44804 97.4206 323.8703 0011570 174.1854 185.9517 15.19237248377959
UTC large
Height (km)
Speed (km/s)
/
Latitude / Longitude
Inclination (degrees)
Orbital Period (minutes)
Azimuth
Elevation
Range (km)
Doppler Factor

Next 0 passes for location: London (51.5072 / 0.1276)

No passes found over London.
CARTOSAT-3